Miscellaneous Local Product
Issued by NWS North Platte, NE

Home | Current Version | Previous Version | Text Only | Print | Product List | Glossary On
Versions: 1 2 3 4 5 6 7 8 9 10 11 12 13 14 15 16 17 18 19 20 21 22 23 24 25 26 27 28 29 30 31 32 33 34 35 36 37 38 39 40 41 42 43 44 45 46 47 48 49 50
500
AXUS43 KLBF 280910
MISLBF


WESTERN AND NORTH CENTRAL NEBRASKA HOURLY WEATHER ROUNDUP
NATIONAL WEATHER SERVICE NORTH PLATTE NE
400 AM CDT WED JUN 28 2017

NOTE: "FAIR" INDICATES FEW OR NO CLOUDS BELOW 12,000 FEET WITH NO
SIGNIFICANT WEATHER AND/OR OBSTRUCTIONS TO VISIBILITY.

NOTE: STATIONS NOT REPORTING VARIABLES SUCH AS SKY/WEATHER OR
PRESSURE ARE PROVIDED BY RAWS AND APRS NETWORKS AND ARE NOT UNDER
NATIONAL WEATHER SERVICE QUALITY CONTROL.

...OBSERVATIONS IN AND NEAR THE EASTERN PANHANDLE OF NEBRASKA...

CITY           SKY/WX    TMP DP  RH WIND       PRES   REMARKS
PINE RIDGE     CLEAR     53  52  96 SW5       29.78R
GORDON         FAIR      57  53  85 W9        29.77R
CHADRON        CLEAR     59  50  72 S9        29.79R
ALLIANCE       CLEAR     51  49  92 W9        29.82R
SIDNEY         CLEAR     53  50  89 W7        29.88F
CRESCENT LAKE    N/A     57  52  83 CALM        N/A
$$

...OBSERVATIONS IN NORTHERN NEBRASKA AND FAR SOUTHERN SOUTH DAKOTA...

CITY           SKY/WX    TMP DP  RH WIND       PRES   REMARKS
WINNER         FAIR      70  53  54 W12       29.63R
VALENTINE      CLEAR     60  54  80 SW8       29.70R
THEDFORD       CLEAR     60  55  82 W7        29.75R
AINSWORTH      CLOUDY    62  57  83 W8        29.72S
O`NEILL        MOCLDY    64  60  85 SW10      29.68R
ORD            CLOUDY    63  59  87 S3        29.66F
BROKEN BOW     PTCLDY    60  58  92 CALM      29.70S
VALENTINE NWR    N/A     60  54  80 W7          N/A
HALSEY           N/A     62  53  73 SW5         N/A
BUTTE            N/A     65  62  89 SW7         N/A
CHAMBERS         N/A     64  61  89 CALM        N/A
EWING            N/A     64  61  90 S6          N/A
$$

...OBSERVATIONS IN SOUTHWEST NEBRASKA AND FAR NORTHEAST COLORADO...

CITY           SKY/WX    TMP DP  RH WIND       PRES   REMARKS
WRAY           FAIR      57  54  88 CALM      29.82S
IMPERIAL       CLOUDY    61  55  81 S5        29.78F
OGALLALA       CLOUDY    59  54  85 W5        29.79F
NORTH PLATTE   PTCLDY    59  58  96 NW7       29.75S
MCCOOK         PTCLDY    71  60  68 S6        29.75R
LEXINGTON      CLOUDY    65  62  90 CALM      29.70F
STAPLETON        N/A     61  57  87 CALM        N/A
GOTHENBURG       N/A     64  58  81 CALM        N/A
CALLAWAY         N/A     61  58  91 CALM        N/A
$$

...OBSERVATIONS IN CENTRAL LINCOLN COUNTY AREA...

CITY           SKY/WX    TMP DP  RH WIND       PRES   REMARKS
N.P. AIRPORT   PTCLDY    59  58  96 NW7       29.75S
N.P. DOWNTOWN    N/A     62  60  93 CALM        N/A
N.P. SOUTHEAST   N/A     63  59  88 CALM        N/A
N.P. HILLCREST   N/A     62  58  88 W3          N/A
$$

...SOME OBSERVATIONS FROM AROUND THE REGION...

CITY           SKY/WX    TMP DP  RH WIND       PRES   REMARKS
DENVER         PTCLDY    59  39  47 SE7       29.96F
LIMON          CLEAR     56  43  61 N9        29.94R
ASPEN          CLOUDY    49  30  48 S6        30.12S
LARAMIE        CLOUDY    48  37  65 W6        30.06R
CASPER         CLEAR     47  40  76 SW7       29.94F
CHEYENNE       CLOUDY    57  39  51 NW5       29.98F
SCOTTSBLUFF    CLEAR     56  49  77 NW7       29.86S
GRAND ISLAND   CLOUDY    66  66 100 NE5       29.69F
OMAHA          TSTM      68  63  84 S13G23    29.82R
SIOUX FALLS    CLOUDY    66 N/A N/A SW5       29.55F
PIERRE         LGT RAIN  70  55  59 W15       29.57R
RAPID CITY     CLEAR     63  50  62 N13       29.75R
BISMARCK       CLOUDY    63  61  93 NW6       29.56R
KANSAS CITY    CLOUDY    74  65  73 S21G26    29.84F
HILL CITY      TSTM      69  62  78 S20G31    29.76R
WICHITA        CLOUDY    74  66  76 S18       29.85R
DODGE CITY     TSTM      74  62  66 SE12      29.83F
OKLAHOMA CITY  PTCLDY    72  68  87 S15       29.90S
DALLAS         PTCLDY    75  72  90 S9        29.93S
$$




USA.gov is the U.S. government's official web portal to all federal, state and local government web resources and services.